{"data":{"norad_id":48120,"epoch":"2026-09-20T04:30:16.243200Z","epoch_age_seconds":57261,"freshness":"FRESH","line1":"1 48120U 21027AE  26263.18768800  .00021314  00000+0  34344-3 0  9995","line2":"2 48120  53.1583 329.4081 0002083  37.8579 322.2578 15.52915437302478","mean_motion":15.52915437,"eccentricity":0.0002083,"inclination_deg":53.1583,"raan_deg":329.4081,"arg_perigee_deg":37.8579,"mean_anomaly_deg":322.2578,"bstar":0.00034344,"rev_number":30247,"period_min":92.728809675681,"perigee_km":406.80537618636,"apogee_km":409.63257208518,"semimajor_km":6786.3559741358,"source":"CELESTRAK","updated_at":"2026-09-20T09:00:38.765246Z"}}